Home   Weather   Brazzaville   Past weeks

Flag for Congo Past Weather in Brazzaville, Congo — Yesterday and Last 2 Weeks

77 °F


Feels Like: 78 °F
Forecast: 71 / 88 °F
Wind: 6 mph from Southwest

Location: Brazzaville / Maya-Maya

Current Time: Oct 27, 2016 at 12:17:52 AM

Latest Report: Oct 26, 2016 at 11:00 PM

Visibility: 6 mi

Pressure: 29.86 "Hg

Humidity: 89%

Dew Point: 73 °F

Location of BrazzavilleLocation

Past Weather in Brazzaville — Graph


Brazzaville Temperature Yesterday

Maximum temperature yesterday: 88 °F (at 3:00 PM)
Minimum temperature yesterday: 72 °F (at 12:00 AM)
Average temperature yesterday: 78 °F

High & Low Weather Summary for the Past Weeks

High93 °F (Oct 12, 4:00 PM)100% (Oct 16, 5:00 AM)32.81 "Hg (Oct 16, 5:00 AM)
Low68 °F (Oct 20, 4:00 AM)47% (Oct 13, 3:00 PM)29.74 "Hg (Oct 12, 4:00 PM)
Average79 °F76%29.90 "Hg
* Reported Oct 11 11:00 PM — Oct 26 11:00 PM, Brazzaville, Weather by CustomWeather, © 2016

Note: Actual official high and low records may vary slightly from our data, if they occured in-between our weather recording intervals... More about our weather records


Brazzaville Weather History for the Previous 24 Hours

Scroll right to see more
Time TempWeatherWind HumidityBarometerVisibility
11:00 PM
Wed, Oct 26
77 °FClear.6 mph89%29.86 "Hg6 mi
10:00 PM77 °FClear.1 mph89%29.86 "Hg6 mi
9:00 PM79 °FClear.2 mph84%29.83 "Hg6 mi
8:00 PM81 °FClear.2 mph74%29.80 "Hg6 mi
7:00 PM82 °FClear.No wind70%29.77 "Hg5 mi
6:00 PM84 °FPassing clouds.No wind66%29.74 "Hg5 mi
5:00 PM86 °FPassing clouds.7 mph62%29.74 "HgN/A
4:00 PM88 °FPassing clouds.8 mph59%29.74 "HgN/A
3:00 PM88 °FScattered clouds.8 mph59%29.74 "HgN/A
2:00 PM86 °FScattered clouds.9 mph62%29.77 "HgN/A
1:00 PM84 °FPartly sunny.8 mph70%29.80 "HgN/A
12:00 PM84 °FPartly sunny.8 mph66%29.83 "Hg6 mi
11:00 AM82 °FPartly sunny.7 mph70%29.86 "Hg5 mi
10:00 AM81 °FScattered clouds.3 mph79%29.86 "Hg5 mi
9:00 AM75 °FPartly sunny.3 mph83%29.89 "Hg5 mi
8:00 AM73 °FPartly sunny.3 mph89%29.86 "Hg5 mi
7:00 AM73 °FPartly sunny.3 mph89%29.83 "Hg5 mi
6:00 AM72 °FPartly sunny.3 mph94%29.80 "Hg5 mi
5:00 AM73 °FPassing clouds.2 mph89%29.80 "HgN/A
4:00 AM72 °FPassing clouds.1 mph94%29.80 "HgN/A
3:00 AM72 °FPassing clouds.1 mph94%29.80 "HgN/A
2:00 AM72 °FPassing clouds.6 mph94%29.80 "HgN/A
1:00 AM72 °FPassing clouds.3 mph94%29.83 "Hg5 mi
12:00 AM72 °FPassing clouds.5 mph94%29.83 "Hg5 mi
Weather by CustomWeather, © 2016

See weather overviewHow to use our weather pages